{"data":{"norad_id":69493,"intl_designator":"2026-131R","name":"STARLINK-37855","alt_names":[],"object_type":"PAYLOAD","status":"ACTIVE","operator":null,"country":"US","launch_date":"2026-06-11","launch_site_code":"AFWTR","launch_vehicle":null,"mission":null,"orbit_class":"UNKNOWN","rcs_meters":null,"size_class":null,"mass_kg":null,"dimensions":null,"purposes":["comms"],"wikipedia_slug":null,"has_3d_model":false,"image_url":null,"decayed_at":null,"tle_current":{"epoch":"2026-09-20T00:06:49.212000Z","epoch_age_seconds":68294,"freshness":"FRESH","line1":"1 69493U 26131R   26263.00473625  .00021273  00000+0  65918-3 0  9996","line2":"2 69493  97.2841 283.9108 0000964  79.2180 280.9171 15.33455932 16826","mean_motion":15.33455932,"eccentricity":9.64e-5,"inclination_deg":97.2841,"raan_deg":283.9108,"arg_perigee_deg":79.218,"mean_anomaly_deg":280.9171,"bstar":0.00065918,"rev_number":1682,"period_min":93.905535199951,"perigee_km":464.85092109734,"apogee_km":466.17037636402,"semimajor_km":6843.6476487307,"source":"CELESTRAK","updated_at":"2026-09-20T09:00:44.208297Z"}}}